sat.trackr.live / text

‹ back to catalog

STARLINK-4067

NORAD 52668 · 2022-053N

PAYLOAD ACTIVE UNKNOWN

§ Identity

Operator
Country
US
Launch date
2022-05-18
Launch site
AFETR
Launch vehicle
Mass (kg)
RCS (m²)

Purposes: comms

External: N2YO · Heavens-Above · Gunter

§ Orbital elements

Epoch: 2026-05-25T00:57:59.546592Z

Period
95.44 min
Inclination
53.2116°
Eccentricity
0.0001220
Mean motion
15.08835486 rev/d
Perigee alt
538.9 km
Apogee alt
540.6 km
Semi-major
6,917.9 km
B*
-2.7972e-5
RAAN
171.3704°
Arg perigee
60.0557°
Mean anomaly
300.0556°
Rev number
22,257

§ Raw data

STARLINK-40671 52668U 22053N   26145.04027253 -.00000733  00000+0 -27972-4 0  99952 52668  53.2116 171.3704 0001220  60.0557 300.0556 15.08835486222573

JSON: /api/v1/satellites/52668 · /tle

For live sub-satellite position, see the globe view (requires WebGL).

§ Visibility from observer

Set your observer location to see the next 7 days of passes ≥ 10°. The values pass through the URL so the page stays shareable.

No JS? Fill the form by hand. The geolocation button needs JavaScript.